Theta_e
288 288 288 288 288 288 288 288 289 290 290 291 292 294 295 296 297 297 297 295 296 296
285 286 286 286 286 286 287 288 287 288 288 289 290 292 293 294 293 293 294 294 294 294
284 285 285 285 284 284 285 286 286 286 287 288 289 290 290 290 290 290 291 291 291 291
283 284 284 283 283 284 284 284 285 285 286 286 287 287 288 288 288 288 288 289 289 289
282 282 282 281 282 283 283 284 284 284 285 285 286 285 285 285 286 285 285 287 287 287
280 280 280 280 281 282 281 282 283 283 284 284 283 283 283 283 283 284 285 285 285 285
279 279 279 280 280 280 281 281 281 282 282 283 282 282 282 282 281 283 284 284 284 283
279 278 278 279 279 279 280 280 281 280 280 281 281 282 282 281 281 281 281 281 281 282
278 278 278 278 278 279 279 279 280 278 279 278 280 283 283 281 279 279 279 278 279 279
277 277 277 277 277 277 278 278 278 277 277 277 278 282 282 281 278 278 277 278 277 277
276 276 276 276 276 277 277 277 277 276 276 276 277 281 281 280 277 277 276 277 276 276
275 275 275 275 275 275 276 276 277 276 275 275 275 280 280 279 276 275 275 275 275 275
274 274 273 273 274 275 276 275 276 275 275 275 274 278 279 278 275 274 273 273 273 275
273 273 273 273 274 274 274 274 272 273 273 273 274 275 277 277 274 274 271 271 270 272
Wind_Speed
9 5 5 6 5 5 5 5 8 8 8 10 10 9 8 5 5 6 6 7 7 4
6 7 6 7 6 5 6 7 9 9 9 10 10 10 8 7 10 8 8 7 7 6
6 6 6 6 7 7 6 7 8 8 8 8 9 11 11 8 10 10 8 8 10 9
5 6 6 6 6 6 6 7 8 8 8 9 10 11 10 10 10 10 9 9 9 10
5 6 6 6 6 6 7 7 8 8 8 8 12 12 12 11 11 11 10 10 10 11
6 6 7 6 6 6 6 6 7 7 7 8 12 11 11 12 11 9 10 10 10 11
6 6 6 6 6 5 5 5 6 8 9 9 11 11 12 12 11 10 10 11 11 12
6 5 6 6 5 5 5 5 6 8 8 8 10 10 13 12 10 10 11 11 11 11
6 5 6 5 4 5 5 6 8 9 8 9 8 19 22 17 10 10 11 11 11 11
6 7 6 5 4 5 6 6 8 9 8 9 8 20 22 22 9 9 10 10 10 11
7 8 6 6 6 6 5 5 6 7 8 8 8 19 21 20 10 9 10 10 10 11
6 6 5 7 6 5 5 4 5 7 7 8 7 18 20 15 9 10 11 10 9 11
5 4 5 7 4 4 3 4 4 7 4 6 6 16 20 18 7 9 9 10 11 16
4 5 5 6 3 3 2 3 4 3 3 6 8 10 20 21 10 8 7 8 9 9
Wind_Direction
30 39 43 35 35 34 22 16 11 9 10 10 9 7 358 14 13 14 22 4 13 353
33 36 43 37 33 27 27 17 16 12 12 15 9 7 6 9 27 15 11 22 0 360
33 37 38 42 37 26 25 20 17 15 16 19 12 18 20 14 20 11 9 11 3 358
41 41 49 47 40 26 27 27 26 20 20 20 30 23 17 12 14 9 2 2 1 355
48 37 47 44 43 36 36 29 31 23 23 20 42 25 17 12 6 4 354 358 1 352
52 48 44 30 28 40 46 38 30 25 25 27 39 23 16 8 2 351 0 356 357 351
50 49 47 27 18 24 43 43 32 35 29 47 35 22 17 7 353 7 1 3 0 360
57 52 50 35 7 20 27 38 43 50 35 33 39 19 16 9 6 4 8 1 1 359
63 51 61 33 2 30 22 21 53 52 39 43 32 18 17 19 6 9 4 359 0 358
69 64 53 41 23 27 30 27 48 49 38 35 20 19 16 19 6 12 1 358 3 358
71 63 49 47 31 26 47 29 50 49 38 39 20 17 14 18 7 4 3 0 7 359
72 81 75 64 31 10 38 24 52 54 41 37 17 11 14 22 7 360 1 352 4 359
85 86 85 70 48 3 5 35 38 48 47 35 25 5 15 14 7 353 359 343 359 355
91 100 71 67 34 284 320 41 21 78 40 41 18 7 13 6 1 352 2 342 354 350